This is the latest recevied weather packets stored in our database for station/object W0AKY-13. If no packets are shown the sender has not sent any weather packets the latest 10 day(s).
| Time | Temp. | Humidity | Pressure | Rain* | Wind** | Luminosity | Snow |
|---|---|---|---|---|---|---|---|
| 1787867860 | 29.44° C | 54% | 1020.7 hPa | 0 mm | - | 234 W/m² | - |
| 1787867555 | 30° C | 54% | 1020.8 hPa | 0 mm | - | 302 W/m² | - |
| 1787867255 | 30.56° C | 57% | 1020.9 hPa | 0 mm | - | 322 W/m² | - |
| 1787866951 | 29.44° C | 53% | 1020.7 hPa | 0 mm | - | 339 W/m² | - |
| 1787866646 | 28.33° C | 55% | 1020.9 hPa | 0 mm | - | 342 W/m² | - |
| 1787866344 | 29.44° C | 55% | 1020.8 hPa | 0 mm | - | 87 W/m² | - |
| 1787866039 | 28.89° C | 58% | 1021 hPa | 0 mm | - | 365 W/m² | - |
| 1787865735 | 28.89° C | 53% | 1020.9 hPa | 0 mm | - | 203 W/m² | - |
| 1787865430 | 28.33° C | 55% | 1021.1 hPa | 0 mm | - | 104 W/m² | - |
| 1787865124 | 28.89° C | 52% | 1021.1 hPa | 0 mm | - | 397 W/m² | - |
| 1787864821 | 28.89° C | 55% | 1021.4 hPa | 0 mm | - | 435 W/m² | - |
| 1787864521 | 28.89° C | 54% | 1021.1 hPa | 0 mm | - | 437 W/m² | - |
| 1787864215 | 29.44° C | 54% | 1021.4 hPa | 0 mm | - | 443 W/m² | - |
| 1787863909 | 29.44° C | 57% | 1021.5 hPa | 0 mm | - | 447 W/m² | - |
| 1787863608 | 28.89° C | 56% | 1021.6 hPa | 0 mm | - | 453 W/m² | - |
| 1787863303 | 28.89° C | 54% | 1021.5 hPa | 0 mm | - | 460 W/m² | - |
| 1787862999 | 28.89° C | 57% | 1021.5 hPa | 0 mm | - | 481 W/m² | - |
| 1787862693 | 29.44° C | 58% | 1021.6 hPa | 0 mm | - | 490 W/m² | - |
| 1787862389 | 28.89° C | 53% | 1021.6 hPa | 0 mm | - | 496 W/m² | - |
| 1787862084 | 28.33° C | 56% | 1021.5 hPa | 0 mm | - | 316 W/m² | - |
| 1787861784 | 28.89° C | 58% | 1021.5 hPa | 0 mm | - | 478 W/m² | - |
| 1787861482 | 28.89° C | 57% | 1021.7 hPa | 0 mm | - | 523 W/m² | - |
| 1787861177 | 28.33° C | 55% | 1021.9 hPa | 0 mm | - | 523 W/m² | - |
| 1787860876 | 27.78° C | 58% | 1021.9 hPa | 0 mm | - | 527 W/m² | - |
| 1787860570 | 27.22° C | 57% | 1022.1 hPa | 0 mm | - | 539 W/m² | - |
* Rain latest hour (hover to see other rain measurements)
** Current wind speed in m/s (hover to see current wind gust speed)